Regional Weather Roundup
Issued by NWS San Angelo, TX

Home | Current Version | Previous Version | Text Only | Print | Product List | Glossary On
Versions: 1 2 3 4 5 6 7 8 9 10 11 12 13 14 15 16 17 18 19 20 21 22 23 24 25 26 27 28 29 30 31 32 33 34 35 36 37 38 39 40 41 42 43 44 45 46 47 48 49 50
000
ASUS44 KSJT 011911
RWRSJT
WEST CENTRAL TEXAS REGIONAL WEATHER ROUNDUP
NATIONAL WEATHER SERVICE SAN ANGELO TX
200 PM CDT SUN MAY 01 2016

NOTE: "FAIR" INDICATES FEW OR NO CLOUDS BELOW 12,000 FEET WITH NO
SIGNIFICANT WEATHER AND/OR OBSTRUCTIONS TO VISIBILITY.

TXZ049-054-064>066-071>073-076>078-098-099-113-114-127-128-139-140-
154-155-168>170-012000
...LOCATIONS ACROSS WEST CENTRAL TEXAS...

CITY           SKY/WX    TMP DP  RH WIND       PRES   REMARKS
SAN ANGELO     CLOUDY    66  46  48 NE14G23   30.02F
ABILENE        CLOUDY    64  41  42 N15G21    30.05F
DYESS AFB      CLOUDY    62  43  49 N15       30.03F
JUNCTION       CLOUDY    69  54  58 E16       29.96F
SWEETWATER     CLOUDY    59  38  44 NE14G21   30.09S
BROWNWOOD      CLOUDY    66  46  48 NE10G20   30.02F
COLEMAN        NOT AVBL
SONORA         CLOUDY    66  52  59 NE17G23   30.01F
OZONA          CLOUDY    61  43  51 NE17G24   30.01F
BRADY          NOT AVBL
$$

TEXAS PANHANDLE/OKLAHOMA PANHANDLE

CITY           SKY/WX    TMP DP  RH WIND       PRES   REMARKS
AMARILLO       CLOUDY    45  36  70 N25G32    30.18F WCI  36
BORGER         CLOUDY    46  40  79 N15       30.20F WCI  40
CANADIAN       DRIZZLE   47  44  87 NW14G21   30.19R
DALHART        LGT RAIN  41  37  86 N21       30.23F WCI  32
DUMAS          LGT RAIN  38  37  93 N14G25    30.22S WCI  30
GUYMON         NOT AVBL
HEREFORD       LGT RAIN  44  40  85 N21G28    30.20F WCI  35
PAMPA          CLOUDY    46  40  79 N28       30.18F WCI  36
PERRYTON       CLOUDY    45  38  77 N15       30.22R WCI  38
$$

SOUTHERN PANHANDLE/SOUTH PLAINS/ROLLING PLAINS

CITY           SKY/WX    TMP DP  RH WIND       PRES   REMARKS
LUBBOCK        CLOUDY    51  36  56 N20G26    30.14F
SNYDER           N/A     60  38  44 NE16G23   30.07F
CHILDRESS      PTSUNNY   60  35  39 N15G25    30.12F
SEMINOLE       CLOUDY    51  35  55 N16G25    30.13F
$$

PERMIAN BASIN

CITY           SKY/WX    TMP DP  RH WIND       PRES   REMARKS
MIDLAND        CLOUDY    56  34  43 NE15      30.09R
ODESSA         CLOUDY    55  33  43 NE16      30.10F
WINK           CLOUDY    55  34  45 N13       30.11S
$$

FAR WEST/SOUTHWEST MOUNTAINS/TRANS PECOS

CITY           SKY/WX    TMP DP  RH WIND       PRES   REMARKS
ALPINE         CLOUDY    51  37  57 NE16      30.14F
DRYDEN           N/A     65  49  56 N22G31    29.95R
EL PASO        MOSUNNY   65  35  33 E16G28    30.00F
FORT STOCKTON  CLOUDY    56  37  49 N13       30.09F
GUADALUPE PASS CLOUDY    47  33  58 NE35G40   30.09F WCI  37
MARFA          SUNNY     57  37  47 NE24G30   30.04F
PECOS          CLOUDY    55  35  47 N13       30.12F
$$

DALLAS/FORT WORTH METROPLEX

CITY           SKY/WX    TMP DP  RH WIND       PRES   REMARKS
DFW AIRPORT    MOSUNNY   71  48  43 N12       30.02S
FTW MEACHAM    SUNNY     71  46  40 NW10G22   30.03S
DAL-EXECUTIVE  SUNNY     72  50  45 NW14G21   30.01F
GRAND PRAIRIE  SUNNY     70  46  43 N13G21    30.04S
ADDISON        SUNNY     72  52  49 N8G20     30.03F
MESQUITE       CLEAR     70  48  46 N13       30.02F
LANCASTER      CLEAR     73  48  42 N13       30.01F
$$

NORTH CENTRAL TEXAS

CITY           SKY/WX    TMP DP  RH WIND       PRES   REMARKS
SHRMAN/DENISON CLEAR     64  43  46 N13       30.05F
GAINESVILLE    SUNNY     67  47  49 NE7       30.07S
BRIDGEPORT     CLEAR     67  46  47 N9G16     30.07F
DENTON         SUNNY     69  48  47 N16       30.04F
WAXAHACHIE     CLEAR     71  54  53 N14       30.01F
GRANBURY       MOCLDY    70  48  45 N10G20    30.02F
$$

WESTERN NORTH TEXAS

CITY           SKY/WX    TMP DP  RH WIND       PRES   REMARKS
WICHITA FALLS  MOSUNNY   66  45  46 N12G17    30.09S
VERNON         CLEAR     66  37  33 N13G18    30.09F
BRECKENRIDGE   PTCLDY    70  41  35 N9        30.05S HAZE
COMANCHE       CLOUDY    67  49  52 NE12G21   30.02F
$$

CENTRAL AND SOUTH CENTRAL TEXAS

CITY           SKY/WX    TMP DP  RH WIND       PRES   REMARKS
AUSTIN/BERGSTM CLOUDY    75  61  61 N20       29.90F
WACO           PTSUNNY   74  52  46 NE14G22   29.97F
HILLSBORO      PTCLDY    70  54  55 N14G21    29.99F
TEMPLE         PTSUNNY   73  56  54 N16G25    29.95F
KILLEEN-GRAY   CLOUDY    71  56  58 NE14G26   29.95F
FORT HOOD      CLOUDY    71  54  54 NE17      29.95F
GEORGETOWN     PTSUNNY   70  55  60 NE15      29.92F
LAGO VISTA     MOCLDY    75  58  55 NE10G22   29.94F
SAN MARCOS     PTSUNNY   75  63  64 N14G24    29.91F
NEW BRAUNFELS  PTSUNNY   78  62  57 N18       29.88F
RANDOLPH AFB   PTSUNNY   77  64  65 N17       29.88F
SAN ANTONIO    PTSUNNY   79  63  57 NE14      29.88F
STINSON        CLOUDY    81  63  54 NE12G22   29.84F
PLEASANTON     NOT AVBL
LA GRANGE        N/A     80  68  66 N9G17     29.86S
GIDDINGS       PTCLDY    78  62  57 NE7G18    29.92F
$$

EAST TEXAS

CITY           SKY/WX    TMP DP  RH WIND       PRES   REMARKS
PARIS          SUNNY     72  52  49 N17G23    29.99F
CLARKSVILLE    NOT AVBL
TYLER          SUNNY     79  56  45 N14G20    29.95S
LONGVIEW       MOSUNNY   78  64  61 N10       29.92F
PALESTINE      MOCLDY    78  62  57 N10G17    29.95S
NACOGDOCHES    CLOUDY    81  70  69 N6        29.89F
$$

TEXAS HILL COUNTRY AND EDWARDS PLATEAU

CITY           SKY/WX    TMP DP  RH WIND       PRES   REMARKS
LLANO          CLOUDY    70  54  56 N9G18     30.01S
HORSESHOE BAY  CLOUDY    71  59  64 N9        29.96F
KERRVILLE      CLOUDY    72  64  76 NE10G17   29.94F
FREDERICKSBRG  CLOUDY    67  58  72 NE10      29.96F
ROCKSPRINGS    CLOUDY    70  61  73 NE9       29.95F
HONDO          CLOUDY    80  65  59 E15       29.88F
UVALDE         CLOUDY    75  64  67 NE13G18   29.88S
DEL RIO        CLOUDY    80  68  66 E10       29.83F
$$

SOUTHEAST TEXAS

CITY           SKY/WX    TMP DP  RH WIND       PRES   REMARKS
COLLEGE STN    PTSUNNY   79  64  60 N12       29.89F
CALDWELL       PTCLDY    77  61  57 N13       29.92F
CROCKETT       MOCLDY    77  66  69 N8        29.93S
BRENHAM        SUNNY     82  67  62 N8        29.87F
HUNTSVILLE     CLOUDY    81  68  64 VRB3      29.89S
CONROE         CLOUDY    82  71  69 VRB5      29.86F
HOUSTON BUSH   CLOUDY    82  73  74 VRB7      29.84F
HOUSTON HOBBY  CLOUDY    82  74  76 E5        29.83F
PERLAND        CLOUDY    81  74  79 E12       29.85F
WHARTON        MOCLDY    85  73  68 NE8       29.83F
$$

THE UPPER TEXAS COAST

CITY           SKY/WX    TMP DP  RH WIND       PRES   REMARKS
ORANGE         CLOUDY    74  70  88 S3        29.87F
PORT ARTHUR    CLOUDY    74  72  93 E5        29.86F
GALVESTON      CLOUDY    80  77  90 SE8       29.85S FOG
ANGLETON       CLOUDY    84  77  79 NE7       29.82F
BAY CITY       CLOUDY    83  77  80 NE7       29.82F
$$

TEXAS COASTAL BEND, RIO GRANDE PLAINS DEEP SOUTH TEXAS

CITY           SKY/WX    TMP DP  RH WIND       PRES   REMARKS
VICTORIA       CLOUDY    82  72  71 NE15      29.82F
BEEVILLE       MOCLDY    86  75  69 NE10G16   29.80F
ROCKPORT       SUNNY     86  74  67 E12       29.78F
PORT ARANSAS   MOCLDY    83  78  82 E12       29.79F
PORT LAVACA    MOCLDY    85  77  77 NE10G16   29.81F
CORPUS CHRISTI PTSUNNY   90  71  53 E10       29.77F
KINGSVILLE NAS PTSUNNY   90  74  59 E7        29.76F
COTULLA        MOSUNNY   88  66  48 E9        29.81F
LAREDO         PTSUNNY   90  70  51 E9        29.78F
BROWNSVILLE    CLOUDY    87  75  67 SE7       29.75F
PORT ISABEL    MOSUNNY   86  76  71 E12       29.74F HAZE
HEBBRONVILLE   CLOUDY    90  67  47 SE8       29.78F
MCALLEN        PTSUNNY   91  72  53 E10       29.74F
WESLACO        CLOUDY    89  72  56 E5        29.74F
FALFURRIAS     CLOUDY    92  68  45 SE7       29.75S
EDINBURG       CLOUDY    91  69  48 E9        29.75F
$$




USA.gov is the U.S. government's official web portal to all federal, state and local government web resources and services.